Regional Weather Roundup
Issued by NWS Spokane, WA

Home | Current Version | Previous Version | Text Only | Print | Product List | Glossary On
Versions: 1 2 3 4 5 6 7 8 9 10 11 12 13 14 15 16 17 18 19 20 21 22 23 24 25 26 27 28 29 30 31 32 33 34 35 36 37 38 39 40 41 42 43 44 45 46 47 48 49 50
047
NZUS01 KOTX 161325
RWROTX

Eastern Washington/Northern Idaho Roundup
National Weather Service, Spokane WA
500 AM PST MON JAN 16 2017

Note: "fair" indicated few or no clouds below 12,000 feet with no
significant weather and/or obstructions to visibility.

...Northeast Washington and Northern Idaho Panhandle...

CITY           SKY/WX    TMP DP  RH WIND       PRES   REMARKS
Spokane Intl   SNOW       2   0  91 W3        30.38R VSB 1/2
Spokane Downto CLOUDY     7   4  87 CALM      30.45R
Coeur d Alene  FOG       10   9  92 CALM      30.40R VSB 1/2
Deer Park      FOG        2  -1  88 NW3       30.42R VSB 3/4
Sandpoint      CLOUDY    18  14  86 CALM      30.40S
Bonners Ferry  CLOUDY    16  12  86 CALM      30.38S

...Southeast Washington and southern Idaho Panhandle...

CITY           SKY/WX    TMP DP  RH WIND       PRES   REMARKS
Walla Walla    CLOUDY    10   5  80 E7        30.50R WCI  -1
Pullman/Moscow CLEAR      2  -2  83 CALM      30.36F
Lewiston       CLOUDY    10   8  92 E5        30.48S FOG     WCI   2
Lowell           N/A      7   3  84 CALM      30.51F
Grangeville    PTSUNNY    7   3  85 SW5       30.31R WCI  -2

...Columbia Basin...

CITY           SKY/WX    TMP DP  RH WIND       PRES   REMARKS
Ephrata        CLOUDY    10   4  76 SE3       30.48F
Moses Lake     CLOUDY    10   6  84 CALM      30.51F
Pasco          FLURRIES  12   8  84 NW5       30.60S WCI   4
Richland       FLURRIES  14  10  86 CALM      30.59F
Hermiston      LGT SNOW  11   7  84 CALM      30.56R FOG
Pendleton      LGT SNOW   5   1  83 N3        30.46R FOG

...East Slopes Cascades...

CITY           SKY/WX    TMP DP  RH WIND       PRES   REMARKS
The Dalles     CLOUDY    12   7  80 CALM      30.60S
Yakima         CLOUDY    15  11  83 CALM      30.51F FOG
Ellensburg     CLOUDY    15   9  76 SE3       30.43F
Stampede Pass  CLOUDY   N/A N/A N/A E8        30.19F FOG
Wenatchee      CLOUDY    12   9  87 E7        30.49F WCI   1
Omak           CLOUDY    19  13  77 S7        30.45F WCI  10
Sunnyside      LGT SNOW  11   8  87 CALM      30.54F

...Southern British Columbia...

CITY           SKY/WX    TMP DP  RH WIND       PRES   REMARKS
Penticton      MOCLDY    21  16  79 S20G25    30.39F WCI   6
Cranbrook      FLURRIES   1  -2  85 S2        30.34S
Osoyoos          N/A     21  16  79 SE7         N/A  WCI  13
Creston          N/A     16  10  79 NE3         N/A

...Western Montana...

CITY           SKY/WX    TMP DP  RH WIND       PRES   REMARKS
Kalispell      CLOUDY    11   8  88 W5        30.36F WCI   3
Missoula       CLEAR     -6  -9  86 CALM      30.40S

...Neighboring Cities...

CITY           SKY/WX    TMP DP  RH WIND       PRES   REMARKS
Seattle        PTCLDY    31  26  82 SE3       30.22F
Portland       CLOUDY    24  14  65 SE14      30.30F WCI  12
Boise          PTCLDY     2  -1  88 SE5       30.43F FOG     WCI  -8
Great Falls    CLOUDY    22  10  60 S18       30.09F WCI   7
Calgary        PTCLDY    27  14  59 SW9       29.94F WCI  17



USA.gov is the U.S. government's official web portal to all federal, state and local government web resources and services.